Location: Aalen
(48.8330°N, 10.1000°E)
Time: 01:10:17
(UTC+02:00)

Transit 4A - Pass Details

Date: 10 August 2021
Orbit: 870 x 974 km, 66.8° (Epoch: 26 September)

Event Time Altitude Azimuth Distance (km) Brightness Sun altitude
Rises 05:33:23 0° 323° (NW) 3,470 10.8 -5.5°
Reaches altitude 10° 05:36:27 10° 339° (NNW) 2,536 10.3 -5.1°
Maximum altitude 05:40:58 22° 29° (NNE) 1,821 10.4 -4.4°
Drops below altitude 10° 05:45:31 10° 80° (E) 2,564 11.7 -3.8°
Sets 05:48:38 0° 95° (E) 3,519 12.0 -3.3°
